Weather observations for the past three days for
Titusville, NASA Shuttle Landing Facility
| Date | Time (edt) | Wind (mph) | Vis. (mi.) | Weather | Sky Cond. | Temperature (ºF) | Relative Humidity | Wind Chill (°F) | Heat Index (°F) | Pressure | Precipitation (in) | ||||||
|---|---|---|---|---|---|---|---|---|---|---|---|---|---|---|---|---|---|
| Air | Dwpt | 6 hour | altimeter (in) | sea level (mb) | 1 hr | 3 hr | 6 hr | ||||||||||
| Max. | Min. | ||||||||||||||||
| 09 | 10:55 | SW 9 | 10.00 | Fair | CLR | 84.7 | 72.5 | 67% | 91 | 29.91 | 1013.3 | ||||||
| 09 | 09:55 | SW 5 | 10.00 | Fair | CLR | 81.5 | 72.7 | 75% | 86 | 29.9 | 1012.9 | ||||||
| 09 | 08:55 | SW 3 | 10.00 | Mostly Cloudy | BKN005 | 77.2 | 72.3 | 85% | 79 | 29.91 | 1013.3 | ||||||
| 09 | 07:55 | W 3 | 5.00 | Fog/Mist | OVC002 | 73.6 | 71.8 | 77.2 | 71.4 | 94% | 29.9 | 1012.9 | |||||
| 09 | 06:55 | Calm | 10.00 | A Few Clouds | FEW005 | 71.6 | 69.4 | 93% | 29.88 | 1012.3 | |||||||
| 09 | 05:55 | S 6 | 10.00 | Fair | CLR | 74.1 | 70.7 | 89% | 29.87 | 1011.9 | |||||||
| 09 | 04:55 | SW 5 | 10.00 | Fair | CLR | 75.6 | 70.3 | 84% | 76 | 29.88 | 1012.3 | ||||||
| 09 | 03:55 | S 6 | 10.00 | A Few Clouds | FEW085 | 76.5 | 70.9 | 83% | 78 | 29.88 | 1012.3 | ||||||
| 09 | 02:55 | S 5 | 10.00 | Overcast | OVC065 | 76.8 | 72.7 | 87% | 78 | 29.89 | 1012.6 | ||||||
| 09 | 01:55 | SE 6 | 10.00 | Mostly Cloudy | FEW060 BKN080 | 76.8 | 72.9 | 81 | 75.4 | 88% | 78 | 29.9 | 1012.9 | ||||
| 09 | 00:55 | Calm | 10.00 | Mostly Cloudy | BKN065 BKN100 | 76.6 | 72.5 | 87% | 78 | 29.93 | 1014.0 | ||||||
| 08 | 23:55 | Calm | 10.00 | Mostly Cloudy | SCT070 BKN110 | 76.1 | 72.1 | 88% | 76 | 29.94 | 1014.3 | ||||||
| 08 | 22:55 | Calm | 10.00 | Thunderstorm in Vicinity | BKN065 | 77.7 | 73.2 | 86% | 80 | 29.94 | 1014.3 | ||||||
| 08 | 21:55 | E 3 | 10.00 | Fair | CLR | 78.1 | 72.5 | 83% | 81 | 29.91 | 1013.3 | ||||||
| 08 | 20:55 | SE 8 | 10.00 | Fair | CLR | 79.3 | 72.1 | 79% | 83 | 29.89 | 1012.6 | ||||||
| 08 | 19:55 | E 7 | 10.00 | Mostly Cloudy | BKN060 | 81 | 71.8 | 89.2 | 81 | 74% | 85 | 29.89 | 1012.6 | ||||
| 08 | 18:55 | SE 10 | 10.00 | Fair | CLR | 83.3 | 71.1 | 67% | 88 | 29.85 | 1011.2 | ||||||
| 08 | 17:55 | SE 14 | 10.00 | Fair | CLR | 83.7 | 69.3 | 62% | 87 | 29.85 | 1011.2 | ||||||
| 08 | 16:55 | SE 10 | 10.00 | Fair | CLR | 87.6 | 70 | 56% | 93 | 29.86 | 1011.6 | ||||||
| 08 | 15:55 | SE 8 | 10.00 | Fair | CLR | 87.3 | 71.1 | 59% | 93 | 29.88 | 1012.3 | ||||||
| 08 | 14:55 | SE 10 | 10.00 | Fair | CLR | 86.9 | 72.3 | 62% | 94 | 29.9 | 1012.9 | ||||||
| 08 | 13:55 | E 8 | 10.00 | Partly Cloudy | FEW032 FEW160 SCT190 | 86.5 | 71.4 | 87.6 | 74.1 | 61% | 92 | 29.92 | 1013.6 | ||||
| 08 | 12:55 | N 5 | 10.00 | Mostly Cloudy | FEW033 SCT042 SCT055 BKN065 | 84.6 | 71.4 | 65% | 90 | 29.95 | 1014.6 | ||||||
| 08 | 11:55 | NE 6 | 10.00 | Overcast | SCT025 BKN030 BKN046 OVC055 | 83.8 | 72.5 | 69% | 90 | 29.97 | 1015.3 | ||||||
| 08 | 10:55 | NE 3 | 10.00 | Partly Cloudy | SCT023 SCT032 | 84.6 | 72.7 | 68% | 91 | 29.97 | 1015.3 | ||||||
| 08 | 09:55 | W 7 | 10.00 | A Few Clouds | FEW019 | 82.4 | 71.6 | 70% | 87 | 29.97 | 1015.3 | ||||||
| 08 | 08:55 | W 5 | 10.00 | Fair | CLR | 78.1 | 72.5 | 83% | 81 | 29.96 | 1015.0 | ||||||
| 08 | 07:55 | W 5 | 10.00 | Fair | CLR | 73.9 | 71.4 | 73.9 | 68.4 | 92% | 29.95 | 1014.6 | |||||
| 08 | 06:55 | Calm | 10.00 | Fair | CLR | 70 | 68.2 | 94% | 29.92 | 1013.6 | |||||||
| 08 | 05:55 | Calm | 10.00 | Fair | CLR | 70.3 | 68.5 | 94% | 29.9 | 1012.9 | |||||||
| 08 | 04:55 | NW 3 | 10.00 | Fair | CLR | 69.1 | 66.6 | 92% | 29.9 | 1012.9 | |||||||
| 08 | 03:55 | Calm | 10.00 | Fair | CLR | 71.2 | 66.4 | 85% | 29.9 | 1012.9 | |||||||
| 08 | 02:55 | W 5 | 10.00 | Fair | CLR | 73.2 | 67.6 | 83% | 29.9 | 1012.9 | |||||||
| 08 | 01:55 | Calm | 10.00 | Fair | CLR | 70.3 | 65.3 | 81.7 | 69.8 | 84% | 29.91 | 1013.3 | |||||
| 08 | 00:55 | W 5 | 10.00 | Fair | CLR | 75.2 | 64.2 | 69% | 77 | 29.92 | 1013.6 | ||||||
| 07 | 23:55 | W 6 | 10.00 | Fair | CLR | 77 | 62.4 | 61% | 79 | 29.92 | 1013.6 | ||||||
| 07 | 22:55 | Calm | 10.00 | Fair | CLR | 72.9 | 69.4 | 89% | 29.91 | 1013.3 | |||||||
| 07 | 21:55 | S 3 | 10.00 | Fair | CLR | 77.9 | 71.6 | 81% | 80 | 29.9 | 1012.9 | ||||||
| 07 | 20:55 | SW 3 | 10.00 | Fair | CLR | 79.7 | 71.4 | 76% | 83 | 29.89 | 1012.6 | ||||||
| 07 | 19:55 | S 9 | 10.00 | Fair | CLR | 81.9 | 71.4 | 95 | 81.9 | 71% | 86 | 29.87 | 1011.9 | ||||
| 07 | 18:55 | S 12 | 10.00 | Fair | CLR | 86 | 70.9 | 61% | 91 | 29.87 | 1011.9 | ||||||
| 07 | 17:55 | S 12 | 10.00 | Fair | CLR | 92.3 | 69.1 | 47% | 97 | 29.86 | 1011.6 | ||||||
| 07 | 16:55 | W 8 | 10.00 | Fair | CLR | 92.1 | 59.7 | 34% | 92 | 29.87 | 1011.9 | ||||||
| 07 | 15:55 | W 10 | 10.00 | Fair | CLR | 93.6 | 60.1 | 33% | 93 | 29.88 | 1012.3 | ||||||
| 07 | 14:55 | SW 12 | 10.00 | Fair | CLR | 92.3 | 63 | 38% | 93 | 29.91 | 1013.3 | ||||||
| 07 | 13:55 | SW 7 | 10.00 | A Few Clouds | FEW170 | 91.4 | 66.9 | 91.6 | 72 | 45% | 95 | 29.95 | 1014.6 | ||||
| 07 | 12:55 | SW 6 | 10.00 | Fair | CLR | 88.3 | 67.3 | 50% | 92 | 29.95 | 1014.6 | ||||||
| 07 | 11:55 | SW 9 | 10.00 | Fair | CLR | 86.5 | 68.4 | 55% | 90 | 29.97 | 1015.3 | ||||||
| 07 | 10:55 | SW 12 | 10.00 | Fair | CLR | 83.5 | 69.1 | 62% | 87 | 29.99 | 1016.0 | ||||||
| 07 | 09:55 | SW 13 | 10.00 | Fair | CLR | 81.1 | 66.7 | 62% | 84 | 29.99 | 1016.0 | ||||||
| 07 | 08:55 | S 7 | 6.00 | Fair with Haze | CLR | 77.4 | 68.4 | 74% | 79 | 29.99 | 1016.0 | ||||||
| 07 | 07:55 | S 3 | 10.00 | Fair | CLR | 71.8 | 67.3 | 71.8 | 66.2 | 86% | 29.99 | 1016.0 | |||||
| 07 | 06:55 | S 5 | 10.00 | Fair | CLR | 68.7 | 66.2 | 92% | 29.98 | 1015.6 | |||||||
| 07 | 05:55 | Calm | 10.00 | Fair | CLR | 66.9 | 64.2 | 91% | 29.96 | 1015.0 | |||||||
| 07 | 04:55 | S 5 | 10.00 | Fair | CLR | 69.4 | 67.3 | 93% | 29.94 | 1014.3 | |||||||
| 07 | 03:55 | Calm | 10.00 | Fair | CLR | 66.9 | 64.8 | 93% | 29.95 | 1014.6 | |||||||
| 07 | 02:55 | Calm | 10.00 | Fair | CLR | 68.2 | 65.7 | 92% | 29.96 | 1015.0 | |||||||
| 07 | 01:55 | Calm | 10.00 | Fair | CLR | 72 | 67.1 | 79.2 | 72 | 85% | 29.98 | 1015.6 | |||||
| 07 | 00:55 | S 6 | 10.00 | Fair | CLR | 74.7 | 67.6 | 79% | 29.98 | 1015.6 | |||||||
| 06 | 22:55 | SE 7 | 10.00 | Fair | CLR | 75.4 | 66.9 | 75% | 77 | 29.98 | 1015.6 | ||||||
| 06 | 21:55 | SE 6 | 10.00 | Fair | CLR | 75.6 | 65.5 | 71% | 77 | 29.98 | 1015.6 | ||||||
| 06 | 20:55 | SE 7 | 10.00 | Fair | CLR | 77 | 63.9 | 64% | 79 | 29.98 | 1015.6 | ||||||
| 06 | 19:55 | SE 8 | 10.00 | Fair | CLR | 79.3 | 59.5 | 88.2 | 79.3 | 51% | 80 | 29.97 | 1015.3 | ||||
| 06 | 18:55 | SE 10 | 10.00 | Fair | CLR | 82.4 | 60.1 | 47% | 83 | 29.97 | 1015.3 | ||||||
| 06 | 17:55 | SE 8 | 10.00 | Fair | CLR | 84 | 60.3 | 45% | 84 | 29.97 | 1015.3 | ||||||
| 06 | 16:55 | SE 12 | 10.00 | Fair | CLR | 85.6 | 62.4 | 46% | 86 | 29.97 | 1015.3 | ||||||
| 06 | 15:55 | SE 9 | 10.00 | Fair | CLR | 86.9 | 63 | 45% | 88 | 29.98 | 1015.6 | ||||||
| 06 | 14:55 | SE 10 | 10.00 | A Few Clouds | FEW200 | 86.9 | 63 | 45% | 88 | 29.99 | 1016.0 | ||||||
| 06 | 13:55 | SE 8 | 10.00 | A Few Clouds | FEW140 FEW180 FEW200 | 87.4 | 61.5 | 87.4 | 70 | 42% | 88 | 30.01 | 1016.7 | ||||
| 06 | 12:55 | SE 12 | 10.00 | Partly Cloudy | FEW130 SCT160 SCT180 SCT210 | 85.8 | 60.6 | 43% | 86 | 30.03 | 1017.3 | ||||||
| 06 | 11:55 | S 9 | 10.00 | Partly Cloudy | FEW140 SCT180 | 85.5 | 65.8 | 52% | 88 | 30.03 | 1017.3 | ||||||
| Date | Time (edt) | Wind (mph) | Vis. (mi.) | Weather | Sky Cond. | Air | Dwpt | Max. | Min. | Relative Humidity | Wind Chill (°F) | Heat Index (°F) | altimeter (in) | sea level (mb) | 1 hr | 3 hr | 6 hr |
| 6 hour | |||||||||||||||||
| Temperature (ºF) | Pressure | Precipitation (in) | |||||||||||||||